Weather in Chashi

Russia / Kurgan Oblast     55°53′56″N   64°52′31″E
temp.,
°C
wind,
m/s
gust,
m/s
humid.,
%
clouds,
%
prec.,
mm/h
press.,
hPa
HPBL,
m
7 march, sun
sun723:00−9w6119250 0.1 1010373
02:00−15w349436 0.0 101239
05:00−16wsw239248 0.0 101321
08:00−16s2290100 0.0 101220
11:00−11se2389100 0.0 1012224
14:00−9e4694100 0.7 1008339
17:00−8ene4695100 1.8 1005370
20:00−9n4795100 1.5 1003321
8 march, mon
mon823:00−10nnw5895100 2.1 1004266
02:00−13nw599599 0.1 1005237
05:00−19wnw469766 0.1 100886
08:00−20w459933 0.0 100982
11:00−15wsw469348 0.0 1010243
14:00−11sw588489 0.0 1009576
17:00−10s6119195 0.0 1008692
20:00−10s61393100 0.3 1006566
9 march, tue
tue923:00−7ssw7159198 0.4 1005617
02:00−7sw7158799 0.0 1005596
05:00−8sw7168470 0.0 1006509
08:00−9sw613920 0.0 1008325
11:00−4sw6108324 0.0 1008693
14:00−3s7109387 0.3 1007759
17:00−3sw81492100 0.3 10041030
20:00−6wsw5118192 0.1 1006231
10 march, wed
wed1023:00−11wsw348772 0.1 100755
02:00−13ssw119392 0.0 100621
05:00−10e229296 0.0 100531
08:00−10ene3496100 0.2 1003125
11:00−8ene3595100 0.7 1002275
14:00−6ne4595100 1.0 1000409
17:00−7n5794100 2.0 999495
20:00−10nnw5995100 0.5 1000377
11 march, thu
thu1123:00−12nw4796100 0.8 1001201
02:00−13wnw3496100 0.2 100379
05:00−14nw4796100 0.4 1006213
08:00−17wnw5995100 0.3 1008380
11:00−20w6995100 0.4 1009343
14:00−18wsw7108961 0.0 1010524
17:00−16wsw7129079 0.0 1010809
20:00−15w61293100 0.2 1011692